This is the latest recevied weather packets stored in our database for station/object N3WGC-14. If no packets are shown the sender has not sent any weather packets the latest 10 day(s).
| Time | Temp. | Humidity | Pressure | Rain* | Wind** | Luminosity | Snow |
|---|---|---|---|---|---|---|---|
| 1787671087 | 24.44° C | 73% | 1018.9 hPa | 0 mm | - | - | - |
| 1787670787 | 23.89° C | 72% | 1018.9 hPa | 0 mm | - | - | - |
| 1787670487 | 23.89° C | 73% | 1018.9 hPa | 0 mm | - | - | - |
| 1787670186 | 24.44° C | 70% | 1018.9 hPa | 0 mm | - | - | - |
| 1787669886 | 24.44° C | 71% | 1018.8 hPa | 0 mm | - | - | - |
| 1787669586 | 24.44° C | 73% | 1018.8 hPa | 0 mm | - | - | - |
| 1787669286 | 24.44° C | 70% | 1018.9 hPa | 0 mm | - | - | - |
| 1787668986 | 23.89° C | 71% | 1018.8 hPa | 0 mm | - | - | - |
| 1787668686 | 23.89° C | 69% | 1018.8 hPa | 0 mm | - | - | - |
| 1787668386 | 23.89° C | 70% | 1018.8 hPa | 0 mm | - | - | - |
| 1787668085 | 23.89° C | 72% | 1018.8 hPa | 0 mm | - | - | - |
| 1787667785 | 23.89° C | 72% | 1018.8 hPa | 0 mm | - | - | - |
| 1787667485 | 23.89° C | 72% | 1018.9 hPa | 0 mm | - | - | - |
| 1787667185 | 23.33° C | 71% | 1018.8 hPa | 0 mm | - | - | - |
| 1787666885 | 23.33° C | 70% | 1018.8 hPa | 0 mm | - | - | - |
| 1787666585 | 23.33° C | 73% | 1018.8 hPa | 0 mm | - | - | - |
| 1787666284 | 23.89° C | 72% | 1018.8 hPa | 0 mm | - | - | - |
| 1787665984 | 23.33° C | 73% | 1018.7 hPa | 0 mm | - | - | - |
| 1787665684 | 23.33° C | 72% | 1018.7 hPa | 0 mm | - | - | - |
| 1787665384 | 23.33° C | 73% | 1018.6 hPa | 0 mm | - | - | - |
| 1787665084 | 23.33° C | 76% | 1018.6 hPa | 0 mm | - | - | - |
| 1787664784 | 23.33° C | 76% | 1018.6 hPa | 0 mm | - | - | - |
| 1787664484 | 23.33° C | 75% | 1018.4 hPa | 0 mm | - | - | - |
| 1787664183 | 23.33° C | 77% | 1018.5 hPa | 0 mm | - | - | - |
| 1787663883 | 22.78° C | 78% | 1018.4 hPa | 0 mm | - | - | - |
* Rain latest hour (hover to see other rain measurements)
** Current wind speed in m/s (hover to see current wind gust speed)